EW6950 Weather Reports


time (UTC)temp
C
wind
direction
speed
KPH
gust
KPH
rain 1hr
cm
rain 24hr
cm
rain mn
cm
humidity
%
barometer
mb
20260504221132 11 32 0.0 0.0 0.00 0.18 0.00 93 1011.1
20260504220631 11 32 0.0 0.0 0.00 0.18 0.00 93 1011.2
20260504220130 11 32 0.0 0.0 0.00 0.18 0.00 93 1011.2
20260504215631 11 32 0.0 0.0 0.00 0.18 0.18 93 1011.2
20260504215130 11 32 0.0 0.0 0.00 0.18 0.18 92 1011.3
20260504214132 11 32 0.0 0.0 0.00 0.18 0.18 93 1011.5
20260504213631 11 32 0.0 0.0 0.00 0.18 0.18 93 1011.5
20260504213132 11 32 0.0 0.0 0.00 0.18 0.18 93 1011.5
20260504212631 11 32 0.0 0.0 0.00 0.18 0.18 93 1011.6
20260504212133 11 32 0.0 0.0 0.00 0.18 0.18 93 1011.6
20260504211631 11 32 0.0 0.0 0.00 0.18 0.18 93 1011.7
20260504211132 11 32 0.0 0.0 0.00 0.18 0.18 93 1011.7
20260504210631 11 32 0.0 0.0 0.00 0.18 0.18 93 1011.6
20260504210132 11 32 0.0 0.0 0.00 0.18 0.18 93 1011.7
20260504205131 12 32 0.0 0.0 0.00 0.18 0.18 92 1011.7
20260504204631 12 32 0.0 0.0 0.00 0.18 0.18 92 1011.8
20260504204131 12 32 0.0 0.0 0.00 0.18 0.18 92 1011.9
20260504203631 12 32 0.0 0.0 0.00 0.18 0.18 92 1011.8
20260504203133 12 32 0.0 0.0 0.00 0.18 0.18 92 1011.8
20260504202617 12 32 0.0 0.0 0.00 0.18 0.18 92 1011.8
20260504202117 12 32 0.0 0.0 0.00 0.18 0.18 92 1011.8
20260504201617 12 32 0.0 0.0 0.00 0.18 0.18 92 1011.8
20260504201117 12 32 0.0 1.6 0.00 0.18 0.18 92 1011.9
20260504200617 12 32 0.0 1.6 0.00 0.18 0.18 92 1011.8
20260504200117 12 32 0.0 1.6 0.00 0.18 0.18 92 1011.8
20260504195617 12 32 0.0 1.6 0.00 0.18 0.18 92 1011.7
20260504195118 12 32 0.0 1.6 0.00 0.18 0.18 92 1011.7
20260504194617 12 32 0.0 1.6 0.00 0.18 0.18 92 1011.7
20260504193607 12 32 1.6 4.8 0.00 0.18 0.18 92 1011.7
20260504193107 12 32 1.6 4.8 0.00 0.18 0.18 92 1011.7
20260504192607 12 28 0.0 3.2 0.00 0.18 0.18 92 1011.6
20260504192108 12 28 0.0 1.6 0.00 0.18 0.18 92 1011.7
20260504191607 12 28 0.0 1.6 0.00 0.18 0.18 92 1011.6
20260504191105 12 28 0.0 1.6 0.00 0.18 0.18 92 1011.6
20260504190605 12 28 0.0 3.2 0.00 0.18 0.18 92 1011.6
20260504190105 12 28 0.0 3.2 0.00 0.18 0.18 92 1011.6
20260504185602 12 28 1.6 3.2 0.00 0.18 0.18 92 1011.5
20260504185102 12 28 1.6 3.2 0.00 0.18 0.18 92 1011.5
20260504184602 12 28 1.6 3.2 0.00 0.18 0.18 92 1011.5
20260504184103 12 28 1.6 3.2 0.03 0.18 0.18 92 1011.5
20260504183602 12 29 1.6 4.8 0.03 0.18 0.18 92 1011.6
20260504182603 12 39 1.6 3.2 0.03 0.18 0.18 92 1011.6
20260504182104 12 40 1.6 3.2 0.03 0.18 0.18 92 1011.6
20260504181559 12 40 1.6 3.2 0.03 0.18 0.18 92 1011.5
20260504180547 12 40 1.6 3.2 0.03 0.18 0.18 92 1011.6
20260504180040 12 40 1.6 4.8 0.03 0.18 0.18 92 1011.6
20260504175539 12 40 1.6 4.8 0.03 0.18 0.18 92 1011.6
20260504175039 12 36 1.6 3.2 0.03 0.18 0.18 92 1011.7
20260504174539 12 26 0.0 3.2 0.00 0.15 0.15 92 1011.8
20260504174039 12 26 1.6 3.2 0.00 0.15 0.15 92 1011.9
20260504173539 12 26 1.6 3.2 0.00 0.15 0.15 92 1011.8
20260504173039 12 26 1.6 3.2 0.00 0.15 0.15 92 1011.8
20260504172539 12 26 1.6 4.8 0.03 0.15 0.15 92 1011.8
20260504171037 12 23 1.6 3.2 0.03 0.15 0.15 92 1011.9
20260504170549 12 23 1.6 4.8 0.03 0.15 0.15 92 1011.9
20260504150502 13 5 0.0 1.6 0.03 0.15 0.15 90 1012.4
20260504140933 13 232 0.0 3.2 0.10 0.15 0.13 89 1012.8
20260504140430 13 232 0.0 1.6 0.10 0.15 0.13 89 1012.8
20260504130428 15 211 0.0 3.2 0.00 0.10 0.03 84 1013.1
20260504100401 15 155 1.6 4.8 0.00 0.08 0.00 78 1013.6
20260504081904 15 180 1.6 6.4 0.00 0.08 0.00 79 1013.3
20260504081402 15 163 1.6 6.4 0.00 0.08 0.00 80 1013.2
20260504080901 15 167 1.6 6.4 0.00 0.08 0.00 80 1013.2
20260504080402 14 171 1.6 3.2 0.00 0.08 0.00 81 1013.1
20260504050346 8 119 0.0 0.0 0.00 0.08 0.00 93 1012.7
20260504045844 8 119 0.0 0.0 0.00 0.08 0.00 93 1012.7
20260504045344 7 119 0.0 0.0 0.00 0.08 0.00 93 1012.7
20260504044344 7 119 0.0 1.6 0.00 0.08 0.00 93 1012.6
20260504043841 6 119 0.0 1.6 0.00 0.08 0.00 92 1012.6
20260504043340 6 118 0.0 1.6 0.00 0.08 0.00 93 1012.6
20260504042840 6 118 0.0 3.2 0.00 0.08 0.00 92 1012.5
20260504042342 6 119 0.0 3.2 0.00 0.08 0.00 92 1012.5
20260504041340 6 118 0.0 0.0 0.00 0.08 0.00 92 1012.6
20260504040838 6 119 0.0 1.6 0.00 0.08 0.00 92 1012.5
20260504040341 6 118 0.0 1.6 0.00 0.08 0.00 92 1012.6
20260504035834 6 118 0.0 1.6 0.00 0.08 0.00 92 1012.6
20260504035334 6 118 0.0 1.6 0.00 0.08 0.00 92 1012.6
20260504034834 6 119 0.0 1.6 0.00 0.08 0.00 92 1012.5
20260504034333 6 118 0.0 3.2 0.00 0.08 0.00 92 1012.5
20260504033834 6 118 0.0 3.2 0.00 0.08 0.00 92 1012.5
20260504033334 6 118 0.0 3.2 0.00 0.08 0.00 92 1012.5
20260504032333 6 118 0.0 0.0 0.00 0.08 0.00 92 1012.5
20260504031333 6 118 0.0 1.6 0.00 0.08 0.00 92 1012.5
20260504030834 6 118 0.0 1.6 0.00 0.08 0.00 92 1012.5
20260504030336 6 119 0.0 1.6 0.00 0.08 0.00 92 1012.5
20260504025834 6 118 0.0 1.6 0.00 0.08 0.00 92 1012.3
20260504025335 6 118 0.0 3.2 0.00 0.08 0.00 92 1012.2
20260504024833 6 118 0.0 3.2 0.00 0.08 0.00 92 1012.2
20260504023333 6 118 0.0 1.6 0.00 0.08 0.00 92 1012.4
20260504022832 6 118 0.0 0.0 0.00 0.08 0.00 92 1012.5
20260504022329 6 118 0.0 0.0 0.00 0.08 0.00 92 1012.5
20260504021823 6 118 0.0 0.0 0.00 0.08 0.00 92 1012.6
20260504021317 6 118 0.0 0.0 0.00 0.08 0.00 92 1012.5
20260504020817 6 118 0.0 0.0 0.00 0.08 0.00 92 1012.6
20260504020316 6 119 0.0 0.0 0.00 0.08 0.00 92 1012.6
20260504015813 6 118 0.0 1.6 0.00 0.08 0.00 92 1012.6
20260504015312 6 119 0.0 1.6 0.00 0.08 0.00 92 1012.6
20260504014809 6 118 0.0 0.0 0.00 0.08 0.00 92 1012.7
20260504014307 7 119 0.0 0.0 0.00 0.08 0.00 92 1012.8
20260504013805 7 118 0.0 0.0 0.00 0.08 0.00 92 1012.8
20260504013304 7 119 0.0 0.0 0.00 0.08 0.00 92 1012.8
20260504012802 7 118 0.0 0.0 0.00 0.08 0.00 92 1012.8
20260504012304 7 119 0.0 0.0 0.00 0.08 0.00 92 1012.8
20260504011802 7 118 0.0 0.0 0.00 0.08 0.00 92 1012.8
20260504011305 7 118 0.0 0.0 0.00 0.08 0.00 92 1012.8
20260504010304 7 118 0.0 0.0 0.00 0.08 0.00 92 1012.8
20260504005301 7 118 0.0 1.6 0.00 0.08 0.00 92 1012.7
20260504004802 7 118 0.0 1.6 0.00 0.08 0.00 92 1012.7
20260504003756 7 118 0.0 0.0 0.00 0.08 0.00 92 1012.7
20260504003254 7 118 0.0 0.0 0.00 0.08 0.00 92 1012.7
20260504002239 7 119 0.0 0.0 0.00 0.08 0.00 91 1012.7
20260504001734 7 119 0.0 0.0 0.00 0.08 0.00 91 1012.7
20260504001227 7 118 0.0 1.6 0.00 0.08 0.00 91 1012.6
20260504000727 7 118 0.0 1.6 0.00 0.08 0.00 91 1012.6
20260504000226 7 118 0.0 0.0 0.00 0.08 0.00 91 1012.6
20260503235725 7 118 0.0 1.6 0.00 0.08 0.00 91 1012.5
20260503235225 7 119 0.0 1.6 0.00 0.08 0.00 91 1012.5
20260503234723 7 118 0.0 1.6 0.00 0.08 0.00 91 1012.5
20260503234221 7 118 0.0 1.6 0.00 0.08 0.00 91 1012.6
20260503233721 7 118 0.0 0.0 0.00 0.08 0.00 91 1012.5
20260503233221 7 118 0.0 0.0 0.00 0.08 0.00 91 1012.4
20260503232719 8 118 0.0 1.6 0.00 0.08 0.00 91 1012.4
20260503232217 8 118 0.0 1.6 0.00 0.08 0.00 91 1012.4
20260503231715 8 119 0.0 1.6 0.00 0.08 0.00 91 1012.5
20260503230705 8 118 0.0 1.6 0.00 0.08 0.00 91 1012.6
20260503230205 8 118 0.0 1.6 0.00 0.08 0.00 91 1012.6
20260503225704 8 118 0.0 0.0 0.00 0.08 0.00 91 1012.7
20260503225205 8 118 0.0 0.0 0.00 0.08 0.00 90 1012.7
20260503224704 8 119 0.0 0.0 0.00 0.08 0.00 90 1012.7
20260503224205 8 119 0.0 0.0 0.00 0.08 0.00 90 1012.8
20260503223703 8 118 0.0 0.0 0.00 0.08 0.00 90 1012.8
20260503222703 8 118 0.0 0.0 0.00 0.08 0.00 90 1012.7
20260503222205 8 118 0.0 0.0 0.00 0.08 0.00 90 1012.7
20260503221703 8 118 0.0 0.0 0.00 0.08 0.00 90 1012.7